Location: Unspecified
(0.0000°N, 0.0000°E)
Time: 22:09:59
(UTC+00:00)

ISS - Pass Details

Date: 18 February 2020
Orbit: 415 x 422 km, 51.6° (Epoch: 27 February)

Event Time Altitude Azimuth Distance (km) Brightness Sun altitude
Exits shadow 05:29:40 14° 255° (WSW) 1,289 -1.8 -10.8°
Maximum altitude 05:31:53 25° 306° (NW) 881 -2.7 -10.3°
Drops below altitude 10° 05:34:41 10° 3° (N) 1,485 -1.1 -9.6°
Sets 05:37:00 0° 17° (NNE) 2,346 0.1 -9.0°
